Regional Weather Roundup
Issued by NWS

Home | Current Version | Previous Version | Graphics & Text | Print | Product List | Glossary On
Versions: 1 2 3 4 5 6 7 8 9 10 11 12 13 14 15 16 17 18 19 20 21 22 23 24 25 26 27 28 29 30 31 32 33 34 35 36 37 38 39 40 41 42 43 44 45 46 47 48 49 50
000
ASUS43 KMKX 211611
RWRWI

WISCONSIN REGIONAL WEATHER ROUNDUP
NATIONAL WEATHER SERVICE MILWAUKEE/SULLIVAN WI
1000 AM CST TUE NOV 21 2017

NOTE: "FAIR" INDICATES FEW OR NO CLOUDS BELOW 12,000 FEET WITH NO
SIGNIFICANT WEATHER AND/OR OBSTRUCTIONS TO VISIBILITY.

WIZ001-002-006>008-014>016-023>028-211700-
NORTHWEST WISCONSIN

CITY           SKY/WX    TMP DP  RH WIND       PRES   REMARKS
SUPERIOR ARPT  CLOUDY    23  10  57 NW17G31   29.95R WCI  10
ASHLAND        CLOUDY    25  12  58 NW20G25   29.88R WCI  11
HAYWARD        FLURRIES  23  11  60 NW12G23   29.88R WCI  12
SIREN          CLOUDY    23  10  58 NW18G28   29.96R WCI   9
CUMBERLAND     CLOUDY    23  10  58 NW18G26   29.91R WCI   9
RICE LAKE      CLOUDY    24  11  59 W14G24    29.93R WCI  11
CHETEK         CLOUDY    24  12  60 NW7G22    29.91R WCI  15
LADYSMITH      CLOUDY    24  12  60 NW22G32   29.88R WCI   9
EAU CLAIRE     CLOUDY    26  10  50 NW21G31   29.91R WCI  12
MENOMONIE      CLOUDY    26  10  52 NW25G31   29.94R WCI  10
NEW RICHMOND   CLOUDY    24  11  58 NW20G25   29.97R WCI   9
OSCEOLA        CLOUDY    24  13  63 NW13G25   30.02R WCI  12
$$

WIZ003>005-009-010-017-018-211700-
NORTH CENTRAL WISCONSIN

CITY           SKY/WX    TMP DP  RH WIND       PRES   REMARKS
MANITOWISH WTR LGT SNOW  22  16  76 NW17G25   29.74R WCI   8
ARBOR VITAE    CLOUDY    24  15  68 NW14G29   29.73R WCI  12
WOODRUFF       CLOUDY    24  15  68 NW14G29   29.73R WCI  12
RHINELANDER    CLOUDY    24  12  60 NW17G31   29.72R WCI  11
EAGLE RIVER    FLURRIES  24  14  65 NW12G30   29.69R WCI  13
LAND O LAKES   FLURRIES  24  17  72 NW7G23    29.71R WCI  16
PHILLIPS       CLOUDY    22  12  66 NW12G22   29.79R WCI  10
TOMAHAWK       CLOUDY    24  12  61 NW16G30   29.76R WCI  11
MEDFORD        CLOUDY    25  12  58 NW21      29.78R WCI  10
MERRILL        CLOUDY    27  14  60 NW18G28   29.75R WCI  13
$$

WIZ029-030-035-036-043>047-211700-
CENTRAL WISCONSIN

CITY           SKY/WX    TMP DP  RH WIND       PRES   REMARKS
WAUSAU         CLOUDY    29  13  51 NW22G33   29.74R WCI  15
MOSINEE        PTSUNNY   28  18  64 W20G28    29.76R WCI  15
MARSHFIELD     CLOUDY    27  15  61 NW24G33   29.78R WCI  12
STEVENS POINT  CLOUDY    28  14  57 W14G25    29.78R WCI  17
WAUPACA        CLOUDY    34  17  49 W17G31    29.76R WCI  23
WAUTOMA        CLOUDY    31  17  56 W23G29    29.80R WCI  18
WISC RAPIDS    CLOUDY    29  15  56 NW16G24   29.81R WCI  17
CAMP DOUGLAS   CLOUDY    30  14  51 NW16G26   29.84R WCI  19
$$

WIZ011>013-019>022-031-037>040-048>050-211700-
NORTHEAST WISCONSIN

CITY           SKY/WX    TMP DP  RH WIND       PRES   REMARKS
ANTIGO         CLOUDY    27  16  62 NW16G31   29.71R WCI  15
SHAWANO        CLOUDY    35  19  52 NW15G25   29.70R WCI  25
OCONTO         MOSUNNY   36  18  47 NW15G23   29.69R WCI  27
STURGEON BAY   PTSUNNY   35  17  47 NW16G28   29.69R WCI  25
GREEN BAY      CLOUDY    36  24  62 W17G25    29.71R WCI  26
MANITOWOC      CLOUDY    37  22  54 W18G25    29.71R WCI  27
APPLETON       PTSUNNY   34  16  47 W17G29    29.70R WCI  23
CLINTONVILLE   CLOUDY    36  16  44 NW16G26   29.71R WCI  26
OSHKOSH        PTSUNNY   33  19  56 W20G28    29.74R WCI  21
$$

WIZ032>034-041-042-053>061-211700-
SOUTHWEST WISCONSIN

CITY           SKY/WX    TMP DP  RH WIND       PRES   REMARKS
LA CROSSE      CLOUDY    34  18  52 NW21G31   29.89R WCI  22
SPARTA         CLOUDY    30  16  55 NW14G20   29.89R WCI  20
VIROQUA        CLOUDY    29  18  62 NW16G24   29.85R WCI  18
BOSCOBEL       CLOUDY    32  15  49 NW18G37   29.91R WCI  20
PRAIRIE DU CHI CLOUDY    31  15  52 W20G29    29.92R WCI  19
PLATTEVILLE    CLOUDY    32  19  59 W18G24    29.87R WCI  20
$$

WIZ056-057-062-063-064-067-068-211700-
SOUTH CENTRAL WISCONSIN

CITY           SKY/WX    TMP DP  RH WIND       PRES   REMARKS
REEDSBURG      CLOUDY    29  13  52 NW18      29.84R WCI  16
BARABOO/DELLS  CLOUDY    29  13  51 NW13G20   29.84R WCI  19
LONE ROCK      CLOUDY    33  16  49 NW18G29   29.87R WCI  22
MINERAL POINT  CLOUDY    32  21  64 NW17G24   29.85R WCI  21
MADISON        CLOUDY    34  18  52 NW17G30   29.81R WCI  23
MIDDLETON      CLOUDY    35  20  55 NW16G23   29.82R WCI  25
WATERTOWN      MOSUNNY   37  17  44 NW16G25   29.77R WCI  27
MONROE         PTSUNNY   34  16  47 W21G29    29.81R WCI  22
JANESVILLE     CLOUDY    39  14  35 W15G29    29.79R WCI  31
$$

WIZ051-052-058>065-066-070>072-211700-
SOUTHEAST WISCONSIN

CITY           SKY/WX    TMP DP  RH WIND       PRES   REMARKS
MILWAUKEE      CLOUDY    45  16  31 W16G25    29.74R
WAUKESHA       SUNNY     37  12  35 NW17G29   29.75R WCI  28
MILWAUKEE/TIMM SUNNY     41   5  22 NW17G24   29.74R
RACINE         CLOUDY    45  25  45 W13G22    29.75R
BURLINGTON     CLOUDY    44  20  38 W15G23    29.76R
KENOSHA        CLOUDY    45  26  47 W17G25    29.75R
FOND DU LAC    CLOUDY    35  17  47 NW21G37   29.75R WCI  24
SHEBOYGAN      CLOUDY    37  22  54 NW23G32   29.72R WCI  26
WEST BEND      MOSUNNY   37  18  44 W18G28    29.74R WCI  27
JUNEAU         CLOUDY    33  20  58 W14G20    29.78R WCI  24
$$

LSZ147-162-211700-
LAKE SUPERIOR

STATION/POSITION TIME  TEMP    WIND        PRES    WAVE
                       AIR SEA DIR/SP/G            HT/PER
                 (UTC) (F)     (DEG/KT/KT) (MB)    (FT/S)
DEVILS ISLAND    1500   24     310/ 26/ 31 1010.2R
SAXON HARBOR     1554   27     310/ 21/ 25 1010.2R
$$

LMZ867-665-643>646-211700-
LAKE MICHIGAN

STATION/POSITION TIME  TEMP    WIND        PRES    WAVE
                       AIR SEA DIR/SP/G            HT/PER
                 (UTC) (F)     (DEG/KT/KT) (MB)    (FT/S)
N MID LAKE BUOY  1550   38 47  290/ 25/ 29 1003.2R   7/ 9
NORTHPORT PIER   1541   36     290/ 11/ 20 1003.7R
KEWAUNEE LAKESHO 1548   38     290/ 11/ 21 1004.4R
SHEBOYGAN LAKESH 1600   37     290/ 22/ 27 1006.9R
PORT WASHINGTON  1530   42     290/ 12/ 17 1007.1R
MILWAUKEE LAKESH 1550   43     310/ 12/ 15   N/A
S MID LAKE BUOY  1450   46 48  280/ 21/ 25 1005.6R   6/ 6
KENOSHA   LAKESH 1600   45     270/ 18/ 22 1007.8
$$

TC  - TEMPERATURE IN CELSIUS
VSB - VISIBILITY IN STATUTE MILES
WCI - WIND CHILL INDEX
HX  - HEAT INDEX




USA.gov is the U.S. government's official web portal to all federal, state and local government web resources and services.